Location: Roland
(31.1349°N, 85.4372°W)
Time: 14:03:53
(UTC+00:00)

Vanguard 1 - Visible Passes

Search period start: 23 April 2021 00:00
Search period end: 03 May 2021 00:00
Orbit: 648 x 3834 km, 34.3° (Epoch: 22 April)

Date Brightness Start Highest point End Pass type
(mag) Time Alt. Az. Time Alt. Az. Time Alt. Az.
23 Apr 13.2 02:35:05 10° WNW 02:54:38 35° SW 03:04:54 23° S visible
24 Apr 13.2 00:28:49 10° WNW 00:50:55 64° SSW 01:11:31 10° SE visible
24 Apr 13.4 02:58:07 10° W 03:15:14 27° SW 03:24:48 18° SSW visible
25 Apr 13.3 00:50:30 10° WNW 01:12:07 55° SW 01:31:58 10° SE visible
25 Apr 13.6 03:22:20 10° W 03:35:49 19° SW 03:44:45 14° SSW visible
26 Apr 13.5 01:12:23 10° WNW 01:33:09 45° SW 01:51:59 10° SSE visible
26 Apr 13.8 03:49:33 10° WSW 03:56:25 12° SW 04:02:45 10° SW visible
27 Apr 13.6 01:34:39 10° W 01:54:03 36° SW 02:11:43 10° SSE visible
28 Apr 13.7 01:57:32 10° W 02:14:52 28° SW 02:30:47 10° S visible
29 Apr 13.8 02:21:31 10° W 02:35:41 20° SW 02:48:52 10° S visible
30 Apr 13.7 00:12:58 10° WNW 00:32:12 45° SW 00:52:43 10° SSE visible
30 Apr 14.0 02:48:09 10° WSW 02:56:34 13° SW 03:04:37 10° SSW visible
01 May 13.8 00:35:06 10° W 00:53:18 36° SW 01:12:22 10° SSE visible
02 May 13.9 00:57:52 10° W 01:14:21 27° SW 01:31:24 10° S visible
